Location: Mesa Verde
(33.6055°N, 114.7275°W)
Time: 12:09:34
(UTC+00:00)

ISS - Pass Details

Date: 05 October 2021
Orbit: 417 x 423 km, 51.6° (Epoch: 26 October)

Event Time Altitude Azimuth Distance (km) Brightness Sun altitude
Rises 02:54:27 0° 316° (NW) 2,362 0.9 -20.7°
Reaches altitude 10° 02:56:34 10° 320° (NW) 1,497 -0.3 -21.2°
Enters shadow 02:59:05 44° 343° (NNW) 588 -2.9 -21.7°
